Weather History for Wink, TX

Change the Weather History Date:

Sunday, February 10, 2013

  Actual Average Record
Temperature  
Mean Temperature 46 °F -  
Max Temperature 62 °F 65 °F 86 °F (1999)
Min Temperature 30 °F 29 °F 3 °F (2011)
Degree Days  
Heating Degree Days 19    
Moisture  
Dew Point 8 °F    
Average Humidity 24    
Maximum Humidity 47    
Minimum Humidity 8    
Precipitation  
Precipitation 0.00 in - - ()
Sea Level Pressure  
Sea Level Pressure 29.87 in    
Wind  
Wind Speed 7 mph (WSW)    
Max Wind Speed 14 mph    
Max Gust Speed 20 mph    
Visibility 10 miles    
Events      
Averages and records for this station are not official NWS values.
T = Trace of Precipitation, MM = Missing Value Source: NWS Daily Summary

Daily Weather History Graph

Daily Weather History Graph

Search for Another Location

Airport:

Trip Planner

Search our weather history database for the weather conditions in past years. The results will help you decide how hot, cold, wet, or windy it might be!

Date:

Astronomy

Feb. 10, 2013 Rise Set
Actual Time 7:38 AM CST 6:35 PM CST
Civil Twilight 7:13 AM CST 7:00 PM CST
Nautical Twilight 6:45 AM CST 7:29 PM CST
Astronomical Twilight 6:16 AM CST 7:57 PM CST
Moon 7:34 AM CST (2/10) 7:22 PM CST (2/10)
Length of Visible Light 11h 46m
Length of Day
10h 56m
Waxing Crescent, 0% of the Moon is Illuminated
Feb 10
Waxing Crescent
Feb 17
First Quarter
Feb 25
Full
Mar 4
Last Quarter
Mar 11
New

Hourly Weather History & Observations

Time (CST) Temp. Windchill Dew Point Humidity Pressure Visibility Wind Dir Wind Speed Gust Speed Precip Events Conditions
12:53 AM 45.0 °F 41.2 °F 16.0 °F 31% 29.81 in 10.0 mi West 6.9 mph - N/A   Clear
1:53 AM 46.0 °F 41.4 °F 12.9 °F 26% 29.81 in 10.0 mi WSW 9.2 mph - N/A   Clear
2:53 AM 42.1 °F 36.6 °F 12.0 °F 29% 29.81 in 10.0 mi West 9.2 mph - N/A   Clear
3:53 AM 43.0 °F 36.0 °F 12.0 °F 28% 29.81 in 10.0 mi West 13.8 mph - N/A   Clear
4:53 AM 39.9 °F 33.9 °F 12.0 °F 32% 29.82 in 10.0 mi West 9.2 mph - N/A   Clear
5:53 AM 37.0 °F 31.0 °F 12.9 °F 37% 29.84 in 10.0 mi West 8.1 mph - N/A   Clear
6:53 AM 33.1 °F 28.7 °F 12.9 °F 43% 29.88 in 10.0 mi WSW 4.6 mph - N/A   Clear
7:53 AM 30.9 °F 27.5 °F 12.9 °F 47% 29.90 in 10.0 mi West 3.5 mph - N/A   Clear
8:53 AM 37.0 °F 31.0 °F 15.1 °F 41% 29.92 in 10.0 mi WSW 8.1 mph - N/A   Clear
9:53 AM 46.0 °F 42.5 °F 15.1 °F 29% 29.94 in 10.0 mi WSW 6.9 mph - N/A   Clear
10:53 AM 48.0 °F - 12.9 °F 24% 29.94 in - Calm Calm - N/A   Clear
11:53 AM 51.1 °F - 10.9 °F 20% 29.92 in - Variable 5.8 mph - N/A   Clear
12:53 PM 55.0 °F - 8.1 °F 15% 29.89 in 10.0 mi West 11.5 mph - N/A   Clear
1:53 PM 57.0 °F - 8.1 °F 14% 29.84 in 10.0 mi WSW 5.8 mph - N/A   Clear
2:53 PM 59.0 °F - 8.1 °F 13% 29.83 in 10.0 mi Variable 5.8 mph - N/A   Clear
3:53 PM 62.1 °F - -0.0 °F 8% 29.81 in 10.0 mi West 9.2 mph 19.6 mph N/A   Clear
4:53 PM 62.1 °F - -2.0 °F 8% 29.82 in 10.0 mi West 8.1 mph - N/A   Clear
5:53 PM 61.0 °F - -0.9 °F 8% 29.83 in 10.0 mi WSW 10.4 mph - N/A   Clear
6:53 PM 53.1 °F - 1.0 °F 12% 29.87 in 10.0 mi SW 9.2 mph - N/A   Clear
7:53 PM 46.0 °F 41.0 °F 1.0 °F 16% 29.90 in 10.0 mi West 10.4 mph - N/A   Clear
8:53 PM 44.1 °F - 1.9 °F 17% 29.92 in 10.0 mi Calm Calm - N/A   Clear
9:53 PM 39.0 °F 36.8 °F 3.9 °F 23% 29.94 in 10.0 mi North 3.5 mph - N/A   Clear
10:53 PM 37.0 °F - 3.9 °F 25% 29.95 in 10.0 mi Calm Calm - N/A   Clear
11:53 PM 37.9 °F 33.5 °F 5.0 °F 25% 29.95 in 10.0 mi SSE 5.8 mph - N/A   Clear